START_TIME,STEP,MOV.,AL01,t_acc.,AL02,t_acc.,E37,t_acc.,H21,t_acc.
1980-11-14 15:00:22.870 ,7,0,10.,24.0,0.,24.0,0.,24.0,0.,24.0
1980-11-14 15:00:46.870 ,6,1,9.,24.0,0.,24.0,0.,24.0,0.,24.0
1980-11-14 15:01:10.870 ,6,0,0.,24.0,0.,24.0,0.,24.0,0.,24.0
1980-11-14 15:01:34.870 ,5,1,0.,24.0,0.,24.0,1.,24.0,0.,24.0
1980-11-14 15:01:58.870 ,5,0,0.,24.0,0.,24.0,0.,24.0,0.,24.0
1980-11-14 15:02:22.870 ,4,1,0.,24.0,0.,24.0,0.,24.0,0.,24.0
1980-11-14 15:02:46.870 ,4,0,0.,24.0,0.,24.0,0.,24.0,0.,24.0
1980-11-14 15:03:10.870 ,3,1,0.,24.0,0.,24.0,0.,24.0,0.,24.0
1980-11-14 15:03:34.870 ,3,0,0.,24.0,0.,24.0,2.,24.0,0.,24.0
1980-11-14 15:03:58.870 ,2,1,0.,24.0,0.,24.0,0.,24.0,0.,24.0
1980-11-14 15:04:22.870 ,2,0,0.,24.0,0.,24.0,0.,24.0,0.,24.0
1980-11-14 15:04:46.870 ,1,1,0.,24.0,0.,24.0,0.,24.0,0.,24.0
1980-11-14 15:05:10.870 ,1,0,0.,24.0,0.,24.0,1.,24.0,0.,24.0
1980-11-14 15:05:34.870 ,0,1,1.,24.0,0.,24.0,2.,24.0,0.,24.0
1980-11-14 15:05:58.870 ,0,0,0.,24.0,0.,24.0,1.,24.0,0.,24.0
1980-11-14 15:06:22.870 ,0,1,0.,24.0,0.,24.0,1.,24.0,0.,24.0
1980-11-14 15:06:46.870 ,0,0,0.,24.0,0.,24.0,1.,24.0,0.,24.0
1980-11-14 15:07:10.870 ,1,1,0.,24.0,0.,24.0,1.,24.0,0.,24.0
1980-11-14 15:07:34.870 ,1,0,0.,24.0,0.,24.0,1.,24.0,0.,24.0
1980-11-14 15:07:58.870 ,2,1,0.,24.0,0.,24.0,0.,24.0,0.,24.0
1980-11-14 15:08:22.870 ,2,0,0.,24.0,0.,24.0,2.,24.0,0.,24.0
1980-11-14 15:08:46.870 ,3,1,0.,24.0,0.,24.0,0.,24.0,0.,24.0
1980-11-14 15:09:10.870 ,3,0,0.,24.0,0.,24.0,0.,24.0,0.,24.0
1980-11-14 15:09:34.870 ,4,1,0.,24.0,0.,24.0,1.,24.0,0.,24.0
1980-11-14 15:09:58.870 ,4,0,0.,24.0,0.,24.0,0.,24.0,0.,24.0
1980-11-14 15:10:22.870 ,5,1,0.,24.0,0.,24.0,1.,24.0,0.,24.0
1980-11-14 15:10:46.870 ,5,0,0.,24.0,0.,24.0,1.,24.0,0.,24.0
1980-11-14 15:11:10.870 ,6,1,0.,24.0,0.,24.0,0.,24.0,0.,24.0
1980-11-14 15:11:34.870 ,6,0,0.,24.0,0.,24.0,1.,24.0,0.,24.0
1980-11-14 15:11:58.870 ,7,1,0.,24.0,0.,24.0,1.,24.0,0.,24.0
1980-11-14 15:12:22.870 ,7,0,7.,24.0,0.,24.0,1.,24.0,0.,24.0
1980-11-14 15:12:46.870 ,7,1,10.,24.0,0.,24.0,0.,24.0,0.,24.0
1980-11-14 15:13:10.870 ,7,0,7.,24.0,0.,24.0,1.,24.0,0.,24.0
1980-11-14 15:13:34.870 ,6,1,3.,24.0,0.,24.0,3.,24.0,0.,24.0
1980-11-14 15:13:58.870 ,6,0,0.,24.0,0.,24.0,0.,24.0,0.,24.0
1980-11-14 15:14:22.870 ,5,1,0.,24.0,0.,24.0,0.,24.0,0.,24.0
1980-11-14 15:14:46.870 ,5,0,0.,24.0,0.,24.0,0.,24.0,0.,24.0
1980-11-14 15:15:10.870 ,4,1,0.,24.0,0.,24.0,0.,24.0,0.,24.0
1980-11-14 15:15:34.870 ,4,0,0.,24.0,0.,24.0,1.,24.0,0.,24.0
1980-11-14 15:15:58.870 ,3,1,0.,24.0,0.,24.0,0.,24.0,0.,24.0
1980-11-14 15:16:22.870 ,3,0,0.,24.0,0.,24.0,0.,24.0,0.,24.0
1980-11-14 15:16:46.870 ,2,1,0.,24.0,0.,24.0,2.,24.0,0.,24.0
1980-11-14 15:17:10.870 ,2,0,0.,24.0,0.,24.0,0.,24.0,0.,24.0
1980-11-14 15:17:34.870 ,1,1,0.,24.0,0.,24.0,1.,24.0,0.,24.0
1980-11-14 15:17:58.870 ,1,0,0.,24.0,0.,24.0,0.,24.0,0.,24.0
1980-11-14 15:18:22.870 ,0,1,1.,24.0,0.,24.0,0.,24.0,0.,24.0
1980-11-14 15:18:46.870 ,0,0,0.,24.0,0.,24.0,0.,24.0,0.,24.0
1980-11-14 15:19:10.870 ,0,1,0.,24.0,0.,24.0,0.,24.0,0.,24.0
1980-11-14 15:19:34.870 ,0,0,0.,24.0,0.,24.0,0.,24.0,0.,24.0
1980-11-14 15:19:58.870 ,1,1,0.,24.0,0.,24.0,1.,24.0,0.,24.0
1980-11-14 15:20:22.870 ,1,0,0.,24.0,0.,24.0,1.,24.0,0.,24.0
1980-11-14 15:20:46.870 ,2,1,0.,24.0,0.,24.0,0.,24.0,0.,24.0
1980-11-14 15:21:10.870 ,2,0,0.,24.0,0.,24.0,0.,24.0,0.,24.0
1980-11-14 15:21:34.870 ,3,1,0.,24.0,0.,24.0,0.,24.0,0.,24.0
1980-11-14 15:21:58.870 ,3,0,0.,24.0,0.,24.0,0.,24.0,0.,24.0
1980-11-14 15:22:22.870 ,4,1,0.,24.0,0.,24.0,0.,24.0,0.,24.0
1980-11-14 15:22:46.870 ,4,0,0.,24.0,0.,24.0,1.,24.0,0.,24.0
1980-11-14 15:23:10.870 ,5,1,0.,24.0,0.,24.0,0.,24.0,0.,24.0
1980-11-14 15:23:34.870 ,5,0,0.,24.0,0.,24.0,0.,24.0,0.,24.0
1980-11-14 15:23:58.870 ,6,1,0.,24.0,0.,24.0,0.,24.0,0.,24.0
1980-11-14 15:24:22.870 ,6,0,0.,24.0,0.,24.0,1.,24.0,0.,24.0
1980-11-14 15:24:46.870 ,7,1,2.,24.0,0.,24.0,0.,24.0,0.,24.0
1980-11-14 15:25:10.870 ,7,0,7.,24.0,0.,24.0,1.,24.0,0.,24.0
1980-11-14 15:25:34.870 ,7,1,8.,24.0,0.,24.0,0.,24.0,0.,24.0
1980-11-14 15:25:58.870 ,7,0,8.,24.0,0.,24.0,3.,24.0,0.,24.0
1980-11-14 15:26:22.870 ,6,1,5.,24.0,0.,24.0,0.,24.0,0.,24.0
1980-11-14 15:26:46.870 ,6,0,0.,24.0,0.,24.0,0.,24.0,0.,24.0
1980-11-14 15:27:10.870 ,5,1,0.,24.0,0.,24.0,0.,24.0,0.,24.0
1980-11-14 15:27:34.870 ,5,0,0.,24.0,0.,24.0,1.,24.0,0.,24.0
1980-11-14 15:27:58.870 ,4,1,0.,24.0,0.,24.0,1.,24.0,0.,24.0
1980-11-14 15:28:22.870 ,4,0,0.,24.0,0.,24.0,1.,24.0,0.,24.0
1980-11-14 15:28:46.870 ,3,1,0.,24.0,0.,24.0,0.,24.0,0.,24.0
1980-11-14 15:29:10.870 ,3,0,0.,24.0,0.,24.0,1.,24.0,0.,24.0
1980-11-14 15:29:34.870 ,2,1,0.,24.0,0.,24.0,0.,24.0,0.,24.0
1980-11-14 15:29:58.870 ,2,0,0.,24.0,0.,24.0,0.,24.0,0.,24.0
1980-11-14 15:30:22.870 ,1,1,0.,24.0,0.,24.0,0.,24.0,0.,24.0
1980-11-14 15:30:46.870 ,1,0,0.,24.0,0.,24.0,1.,24.0,0.,24.0
1980-11-14 15:31:10.870 ,0,1,0.,24.0,0.,24.0,0.,24.0,0.,24.0
1980-11-14 15:31:34.870 ,0,0,0.,24.0,0.,24.0,0.,24.0,0.,24.0
1980-11-14 15:31:58.870 ,0,1,0.,24.0,0.,24.0,1.,24.0,0.,24.0
1980-11-14 15:32:22.870 ,0,0,0.,24.0,0.,24.0,2.,24.0,0.,24.0
1980-11-14 15:32:46.870 ,1,1,0.,24.0,0.,24.0,0.,24.0,0.,24.0
1980-11-14 15:33:10.870 ,1,0,0.,24.0,0.,24.0,1.,24.0,0.,24.0
1980-11-14 15:33:34.870 ,2,1,0.,24.0,0.,24.0,0.,24.0,0.,24.0
1980-11-14 15:33:58.870 ,2,0,0.,24.0,0.,24.0,1.,24.0,0.,24.0
1980-11-14 15:34:22.870 ,3,1,0.,24.0,0.,24.0,0.,24.0,0.,24.0
1980-11-14 15:34:46.870 ,3,0,0.,24.0,0.,24.0,0.,24.0,0.,24.0
1980-11-14 15:35:10.870 ,4,1,0.,24.0,0.,24.0,0.,24.0,0.,24.0
1980-11-14 15:35:34.870 ,4,0,0.,24.0,0.,24.0,1.,24.0,0.,24.0
1980-11-14 15:35:58.870 ,5,1,0.,24.0,0.,24.0,1.,24.0,0.,24.0
1980-11-14 15:36:22.870 ,5,0,0.,24.0,0.,24.0,0.,24.0,0.,24.0
1980-11-14 15:36:46.870 ,6,1,0.,24.0,0.,24.0,1.,24.0,0.,24.0
1980-11-14 15:37:10.870 ,6,0,0.,24.0,0.,24.0,0.,24.0,0.,24.0
1980-11-14 15:37:34.870 ,7,1,2.,24.0,0.,24.0,2.,24.0,0.,24.0
1980-11-14 15:37:58.870 ,7,0,9.,24.0,0.,24.0,0.,24.0,0.,24.0
1980-11-14 15:38:22.870 ,7,1,8.,24.0,0.,24.0,0.,24.0,0.,24.0
1980-11-14 15:38:46.870 ,7,0,7.,24.0,0.,24.0,0.,24.0,0.,24.0
1980-11-14 15:39:10.870 ,6,1,9.,24.0,0.,24.0,0.,24.0,0.,24.0
1980-11-14 15:39:34.870 ,0,0,,0,,0,,0,,0
1980-11-14 15:39:58.870 ,5,1,0.,24.0,0.,24.0,1.,24.0,0.,24.0
1980-11-14 15:40:22.870 ,5,0,0.,24.0,0.,24.0,1.,24.0,0.,24.0
1980-11-14 15:40:46.870 ,4,1,0.,24.0,0.,24.0,0.,24.0,0.,24.0
1980-11-14 15:41:10.870 ,4,0,0.,24.0,0.,24.0,0.,24.0,0.,24.0
1980-11-14 15:41:34.870 ,3,1,0.,24.0,0.,24.0,0.,24.0,0.,24.0
1980-11-14 15:41:58.870 ,3,0,0.,24.0,0.,24.0,0.,24.0,0.,24.0
1980-11-14 15:42:22.870 ,2,1,0.,24.0,0.,24.0,2.,24.0,0.,24.0
1980-11-14 15:42:46.870 ,2,0,0.,24.0,0.,24.0,0.,24.0,0.,24.0
1980-11-14 15:43:10.870 ,1,1,0.,24.0,0.,24.0,0.,24.0,0.,24.0
1980-11-14 15:43:34.870 ,1,0,0.,24.0,0.,24.0,1.,24.0,0.,24.0
1980-11-14 15:43:58.870 ,0,1,0.,24.0,0.,24.0,0.,24.0,0.,24.0
1980-11-14 15:44:22.870 ,0,0,0.,24.0,0.,24.0,0.,24.0,0.,24.0
1980-11-14 15:44:46.870 ,0,1,0.,24.0,0.,24.0,0.,24.0,0.,24.0
1980-11-14 15:45:10.870 ,0,0,0.,24.0,0.,24.0,0.,24.0,0.,24.0
1980-11-14 15:45:34.870 ,1,1,0.,24.0,0.,24.0,1.,24.0,0.,24.0
1980-11-14 15:45:58.870 ,1,0,0.,24.0,0.,24.0,0.,24.0,0.,24.0
1980-11-14 15:46:22.870 ,2,1,0.,24.0,0.,24.0,0.,24.0,0.,24.0
1980-11-14 15:46:46.870 ,2,0,0.,24.0,0.,24.0,0.,24.0,0.,24.0
1980-11-14 15:47:10.870 ,3,1,0.,24.0,0.,24.0,1.,24.0,0.,24.0
1980-11-14 15:47:34.870 ,3,0,0.,24.0,0.,24.0,1.,24.0,0.,24.0
1980-11-14 15:47:58.870 ,4,1,0.,24.0,0.,24.0,0.,24.0,0.,24.0
1980-11-14 15:48:22.870 ,4,0,0.,24.0,0.,24.0,0.,24.0,0.,24.0
1980-11-14 15:48:46.870 ,5,1,0.,24.0,0.,24.0,0.,24.0,0.,24.0
1980-11-14 15:49:10.870 ,5,0,0.,24.0,0.,24.0,0.,24.0,0.,24.0
1980-11-14 15:49:34.870 ,6,1,0.,24.0,0.,24.0,0.,24.0,0.,24.0
1980-11-14 15:49:58.870 ,6,0,0.,24.0,0.,24.0,0.,24.0,0.,24.0
1980-11-14 15:50:22.870 ,7,1,4.,24.0,0.,24.0,0.,24.0,0.,24.0
1980-11-14 15:50:46.870 ,7,0,12.,24.0,0.,24.0,1.,24.0,0.,24.0
1980-11-14 15:51:10.870 ,7,1,11.,24.0,0.,24.0,0.,24.0,0.,24.0
1980-11-14 15:51:34.870 ,7,0,7.,24.0,0.,24.0,1.,24.0,0.,24.0
1980-11-14 15:51:58.870 ,6,1,5.,24.0,0.,24.0,1.,24.0,0.,24.0
1980-11-14 15:52:22.870 ,6,0,0.,24.0,0.,24.0,0.,24.0,0.,24.0
1980-11-14 15:52:46.870 ,5,1,0.,24.0,0.,24.0,0.,24.0,0.,24.0
1980-11-14 15:53:10.870 ,5,0,0.,24.0,0.,24.0,0.,24.0,0.,24.0
1980-11-14 15:53:34.870 ,4,1,0.,24.0,0.,24.0,0.,24.0,0.,24.0
1980-11-14 15:53:58.870 ,4,0,0.,24.0,0.,24.0,0.,24.0,0.,24.0
1980-11-14 15:54:22.870 ,3,1,0.,24.0,0.,24.0,1.,24.0,0.,24.0
1980-11-14 15:54:46.870 ,3,0,0.,24.0,0.,24.0,1.,24.0,0.,24.0
1980-11-14 15:55:10.870 ,2,1,0.,24.0,0.,24.0,0.,24.0,0.,24.0
1980-11-14 15:55:34.870 ,2,0,0.,24.0,0.,24.0,0.,24.0,0.,24.0
1980-11-14 15:55:58.870 ,1,1,0.,24.0,0.,24.0,1.,24.0,0.,24.0
1980-11-14 15:56:22.870 ,1,0,0.,24.0,0.,24.0,0.,24.0,0.,24.0
1980-11-14 15:56:46.870 ,0,1,0.,24.0,0.,24.0,1.,24.0,0.,24.0
1980-11-14 15:57:10.870 ,0,0,0.,24.0,0.,24.0,0.,24.0,0.,24.0
1980-11-14 15:57:34.870 ,0,1,0.,24.0,0.,24.0,1.,24.0,0.,24.0
1980-11-14 15:57:58.870 ,0,0,0.,24.0,0.,24.0,1.,24.0,0.,24.0
1980-11-14 15:58:22.870 ,1,1,0.,24.0,0.,24.0,0.,24.0,0.,24.0
1980-11-14 15:58:46.870 ,1,0,1.,24.0,0.,24.0,0.,24.0,0.,24.0
1980-11-14 15:59:58.870 ,0,0,0.,24.0,0.,24.0,1.,24.0,0.,24.0
1980-11-14 16:00:22.870 ,0,0,0.,24.0,0.,24.0,1.,24.0,0.,24.0
1980-11-14 16:00:46.870 ,4,1,0.,24.0,0.,24.0,0.,24.0,0.,24.0
1980-11-14 16:01:10.870 ,4,0,0.,24.0,0.,24.0,1.,24.0,0.,24.0
1980-11-14 16:01:34.870 ,5,1,0.,24.0,0.,24.0,0.,24.0,0.,24.0
1980-11-14 16:01:58.870 ,5,0,0.,24.0,0.,24.0,0.,24.0,0.,24.0
1980-11-14 16:02:22.870 ,6,1,0.,24.0,0.,24.0,0.,24.0,0.,24.0
1980-11-14 16:02:46.870 ,6,0,0.,24.0,0.,24.0,0.,24.0,0.,24.0
1980-11-14 16:03:10.870 ,7,1,3.,24.0,0.,24.0,0.,24.0,0.,24.0
1980-11-14 16:03:34.870 ,7,0,11.,24.0,0.,24.0,0.,24.0,0.,24.0
1980-11-14 16:03:58.870 ,7,1,6.,24.0,0.,24.0,2.,24.0,0.,24.0
1980-11-14 16:04:22.870 ,7,0,9.,24.0,0.,24.0,0.,24.0,0.,24.0
1980-11-14 16:04:46.870 ,6,1,9.,24.0,0.,24.0,1.,24.0,0.,24.0
1980-11-14 16:05:10.870 ,6,0,0.,24.0,0.,24.0,0.,24.0,0.,24.0
1980-11-14 16:05:34.870 ,5,1,0.,24.0,0.,24.0,1.,24.0,0.,24.0
1980-11-14 16:05:58.870 ,5,0,0.,24.0,0.,24.0,0.,24.0,0.,24.0
1980-11-14 16:06:22.870 ,4,1,0.,24.0,0.,24.0,0.,24.0,0.,24.0
1980-11-14 16:06:46.870 ,4,0,0.,24.0,0.,24.0,0.,24.0,0.,24.0
1980-11-14 16:07:10.870 ,3,1,0.,24.0,0.,24.0,0.,24.0,0.,24.0
1980-11-14 16:07:34.870 ,3,0,0.,24.0,0.,24.0,0.,24.0,0.,24.0
1980-11-14 16:07:58.870 ,2,1,0.,24.0,0.,24.0,0.,24.0,0.,24.0
1980-11-14 16:08:22.870 ,2,0,0.,24.0,0.,24.0,0.,24.0,0.,24.0
1980-11-14 16:08:46.870 ,1,1,0.,24.0,0.,24.0,0.,24.0,0.,24.0
1980-11-14 16:09:10.870 ,1,0,0.,24.0,0.,24.0,0.,24.0,0.,24.0
1980-11-14 16:09:34.870 ,0,1,0.,24.0,0.,24.0,0.,24.0,0.,24.0
1980-11-14 16:09:58.870 ,0,0,0.,24.0,0.,24.0,0.,24.0,0.,24.0
1980-11-14 16:10:22.870 ,0,1,0.,24.0,0.,24.0,0.,24.0,0.,24.0
1980-11-14 16:10:46.870 ,0,0,0.,24.0,0.,24.0,1.,24.0,0.,24.0
1980-11-14 16:14:16.870 ,0,0,,0,,0,,0,,0
1980-11-14 16:14:27.070 ,0,0,0.,24.0,0.,24.0,0.,24.0,0.,24.0
1980-11-14 16:14:46.870 ,0,0,0.,24.0,0.,24.0,0.,24.0,0.,24.0
1980-11-14 16:15:10.870 ,6,1,0.,24.0,0.,24.0,0.,24.0,0.,24.0
1980-11-14 16:15:34.870 ,6,0,0.,24.0,0.,24.0,0.,24.0,0.,24.0
1980-11-14 16:15:58.870 ,7,1,2.,24.0,0.,24.0,0.,24.0,0.,24.0
1980-11-14 16:16:22.870 ,7,0,10.,24.0,0.,24.0,0.,24.0,0.,24.0
1980-11-14 16:16:46.870 ,7,1,10.,24.0,0.,24.0,0.,24.0,0.,24.0
1980-11-14 16:17:10.870 ,7,0,11.,24.0,0.,24.0,0.,24.0,0.,24.0
1980-11-14 16:17:34.870 ,6,1,6.,24.0,0.,24.0,0.,24.0,0.,24.0
1980-11-14 16:17:58.870 ,6,0,0.,24.0,0.,24.0,0.,24.0,0.,24.0
1980-11-14 16:18:22.870 ,5,1,0.,24.0,0.,24.0,0.,24.0,0.,24.0
1980-11-14 16:18:46.870 ,5,0,0.,24.0,0.,24.0,0.,24.0,0.,24.0
1980-11-14 16:19:10.870 ,4,1,0.,24.0,0.,24.0,0.,24.0,0.,24.0
1980-11-14 16:19:34.870 ,4,0,0.,24.0,0.,24.0,0.,24.0,0.,24.0
1980-11-14 16:19:58.870 ,3,1,0.,24.0,0.,24.0,0.,24.0,0.,24.0
1980-11-14 16:20:22.870 ,3,0,0.,24.0,0.,24.0,1.,24.0,0.,24.0
1980-11-14 16:20:46.870 ,2,1,0.,24.0,0.,24.0,0.,24.0,0.,24.0
1980-11-14 16:21:10.870 ,2,0,0.,24.0,0.,24.0,0.,24.0,0.,24.0
1980-11-14 16:21:34.870 ,1,1,0.,24.0,0.,24.0,0.,24.0,0.,24.0
1980-11-14 16:21:58.870 ,1,0,0.,24.0,0.,24.0,1.,24.0,0.,24.0
1980-11-14 16:22:22.870 ,0,1,0.,24.0,0.,24.0,1.,24.0,0.,24.0
1980-11-14 16:22:46.870 ,0,0,0.,24.0,0.,24.0,2.,24.0,0.,24.0
1980-11-14 16:23:10.870 ,0,1,0.,24.0,0.,24.0,2.,24.0,0.,24.0
1980-11-14 16:23:34.870 ,0,0,0.,24.0,0.,24.0,0.,24.0,0.,24.0
1980-11-14 16:45:34.870 ,0,0,0.,24.0,0.,24.0,1.,24.0,0.,24.0
1980-11-14 16:45:58.870 ,0,0,0.,24.0,0.,24.0,1.,24.0,0.,24.0
1980-11-14 16:46:22.870 ,2,1,0.,24.0,0.,24.0,0.,24.0,0.,24.0
1980-11-14 16:46:46.870 ,2,0,0.,24.0,0.,24.0,0.,24.0,0.,24.0
1980-11-14 16:47:10.870 ,1,1,0.,24.0,0.,24.0,1.,24.0,0.,24.0
1980-11-14 16:47:34.870 ,1,0,0.,24.0,0.,24.0,1.,24.0,0.,24.0
1980-11-14 16:47:58.870 ,0,1,0.,24.0,0.,24.0,1.,24.0,0.,24.0
1980-11-14 16:48:22.870 ,0,0,0.,24.0,0.,24.0,1.,24.0,0.,24.0
1980-11-14 16:48:46.870 ,0,1,0.,24.0,0.,24.0,1.,24.0,0.,24.0
1980-11-14 16:49:10.870 ,0,0,0.,24.0,0.,24.0,0.,24.0,0.,24.0
1980-11-14 16:49:34.870 ,1,1,0.,24.0,0.,24.0,1.,24.0,0.,24.0
1980-11-14 16:49:58.870 ,1,0,0.,24.0,0.,24.0,1.,24.0,0.,24.0
1980-11-14 16:50:22.870 ,2,1,0.,24.0,0.,24.0,3.,24.0,0.,24.0
1980-11-14 16:50:46.870 ,2,0,0.,24.0,0.,24.0,0.,24.0,0.,24.0
1980-11-14 16:51:10.870 ,3,1,0.,24.0,0.,24.0,1.,24.0,0.,24.0
1980-11-14 16:51:34.870 ,3,0,0.,24.0,0.,24.0,1.,24.0,0.,24.0
1980-11-14 16:51:58.870 ,4,1,0.,24.0,0.,24.0,0.,24.0,0.,24.0
1980-11-14 16:52:22.870 ,4,0,0.,24.0,0.,24.0,0.,24.0,0.,24.0
1980-11-14 16:52:46.870 ,5,1,0.,24.0,0.,24.0,0.,24.0,0.,24.0
1980-11-14 16:53:10.870 ,5,0,0.,24.0,0.,24.0,0.,24.0,0.,24.0
1980-11-14 16:53:34.870 ,6,1,0.,24.0,0.,24.0,0.,24.0,0.,24.0
1980-11-14 16:53:58.870 ,6,0,0.,24.0,0.,24.0,1.,24.0,0.,24.0
1980-11-14 16:54:22.870 ,7,1,3.,24.0,0.,24.0,1.,24.0,0.,24.0
1980-11-14 16:54:46.870 ,7,0,13.,24.0,0.,24.0,0.,24.0,0.,24.0
1980-11-14 16:55:10.870 ,7,1,11.,24.0,0.,24.0,0.,24.0,0.,24.0
1980-11-14 16:55:34.870 ,7,0,7.,24.0,0.,24.0,0.,24.0,0.,24.0
1980-11-14 16:55:58.870 ,6,1,4.,24.0,0.,24.0,0.,24.0,0.,24.0
1980-11-14 16:56:22.870 ,6,0,0.,24.0,0.,24.0,0.,24.0,0.,24.0
1980-11-14 16:56:46.870 ,5,1,0.,24.0,0.,24.0,1.,24.0,0.,24.0
1980-11-14 16:57:10.870 ,5,0,0.,24.0,0.,24.0,1.,24.0,0.,24.0
1980-11-14 16:57:34.870 ,4,1,0.,24.0,0.,24.0,1.,24.0,0.,24.0
1980-11-14 16:57:58.870 ,4,0,0.,24.0,0.,24.0,1.,24.0,0.,24.0
1980-11-14 16:58:22.870 ,3,1,0.,24.0,0.,24.0,1.,24.0,0.,24.0
1980-11-14 16:58:46.870 ,3,0,0.,24.0,0.,24.0,2.,24.0,0.,24.0
1980-11-14 16:59:10.870 ,2,1,0.,24.0,0.,24.0,0.,24.0,0.,24.0
1980-11-14 16:59:34.870 ,2,0,0.,24.0,0.,24.0,1.,24.0,0.,24.0
1980-11-14 17:02:22.870 ,0,0,0.,24.0,0.,24.0,0.,24.0,0.,24.0
1980-11-14 17:02:46.870 ,0,0,0.,24.0,0.,24.0,2.,24.0,0.,24.0
1980-11-14 17:03:10.870 ,2,1,0.,24.0,0.,24.0,0.,24.0,0.,24.0
1980-11-14 17:03:34.870 ,2,0,0.,24.0,0.,24.0,0.,24.0,0.,24.0
1980-11-14 17:03:58.870 ,3,1,0.,24.0,0.,24.0,0.,24.0,0.,24.0
1980-11-14 17:04:22.870 ,3,0,0.,24.0,0.,24.0,0.,24.0,0.,24.0
1980-11-14 17:04:46.870 ,4,1,0.,24.0,0.,24.0,0.,24.0,0.,24.0
1980-11-14 17:05:10.870 ,4,0,0.,24.0,0.,24.0,0.,24.0,0.,24.0
1980-11-14 17:05:34.870 ,5,1,0.,24.0,0.,24.0,1.,24.0,0.,24.0
1980-11-14 17:05:58.870 ,5,0,0.,24.0,0.,24.0,0.,24.0,0.,24.0
1980-11-14 17:06:22.870 ,6,1,0.,24.0,0.,24.0,0.,24.0,0.,24.0
1980-11-14 17:06:46.870 ,6,0,0.,24.0,0.,24.0,0.,24.0,0.,24.0
1980-11-14 17:07:10.870 ,7,1,2.,24.0,0.,24.0,1.,24.0,0.,24.0
1980-11-14 17:07:34.870 ,7,0,11.,24.0,0.,24.0,0.,24.0,0.,24.0
1980-11-14 17:07:58.870 ,7,1,12.,24.0,0.,24.0,1.,24.0,0.,24.0
1980-11-14 17:08:22.870 ,7,0,7.,24.0,0.,24.0,1.,24.0,0.,24.0
1980-11-14 17:08:46.870 ,6,1,2.,24.0,0.,24.0,0.,24.0,0.,24.0
1980-11-14 17:09:10.870 ,6,0,0.,24.0,0.,24.0,0.,24.0,0.,24.0
1980-11-14 17:09:34.870 ,5,1,0.,24.0,0.,24.0,0.,24.0,0.,24.0
1980-11-14 17:09:58.870 ,5,0,0.,24.0,0.,24.0,0.,24.0,0.,24.0
1980-11-14 17:10:22.870 ,4,1,0.,24.0,0.,24.0,1.,24.0,0.,24.0
1980-11-14 17:10:46.870 ,4,0,0.,24.0,0.,24.0,0.,24.0,0.,24.0
1980-11-14 17:11:10.870 ,3,1,0.,24.0,0.,24.0,0.,24.0,0.,24.0
1980-11-14 17:11:34.870 ,3,0,0.,24.0,0.,24.0,0.,24.0,0.,24.0
1980-11-14 17:11:58.870 ,2,1,0.,24.0,0.,24.0,2.,24.0,0.,24.0
1980-11-14 17:12:22.870 ,2,0,0.,24.0,0.,24.0,0.,24.0,0.,24.0
1980-11-14 17:12:46.870 ,1,1,0.,24.0,0.,24.0,1.,24.0,0.,24.0
1980-11-14 17:13:10.870 ,1,0,0.,24.0,0.,24.0,0.,24.0,0.,24.0
1980-11-14 17:13:34.870 ,0,1,0.,24.0,0.,24.0,0.,24.0,0.,24.0
1980-11-14 17:13:58.870 ,0,0,0.,24.0,0.,24.0,0.,24.0,0.,24.0
1980-11-14 17:14:22.870 ,0,1,0.,24.0,0.,24.0,0.,24.0,0.,24.0
1980-11-14 17:14:46.870 ,0,0,0.,24.0,0.,24.0,2.,24.0,0.,24.0
1980-11-14 17:15:10.870 ,1,1,0.,24.0,0.,24.0,0.,24.0,0.,24.0
1980-11-14 17:15:34.870 ,1,0,0.,24.0,0.,24.0,0.,24.0,0.,24.0
1980-11-14 17:15:58.870 ,2,1,0.,24.0,0.,24.0,1.,24.0,0.,24.0
1980-11-14 17:16:22.870 ,2,0,0.,24.0,0.,24.0,0.,24.0,0.,24.0
1980-11-14 17:16:46.870 ,3,1,0.,24.0,0.,24.0,0.,24.0,0.,24.0
1980-11-14 17:17:10.870 ,3,0,0.,24.0,0.,24.0,0.,24.0,0.,24.0
1980-11-14 17:17:34.870 ,4,1,0.,24.0,0.,24.0,1.,24.0,0.,24.0
1980-11-14 17:17:58.870 ,4,0,0.,24.0,0.,24.0,0.,24.0,0.,24.0
1980-11-14 17:18:22.870 ,5,1,0.,24.0,0.,24.0,0.,24.0,0.,24.0
1980-11-14 17:18:46.870 ,5,0,0.,24.0,0.,24.0,1.,24.0,0.,24.0
1980-11-14 17:19:10.870 ,6,1,0.,24.0,0.,24.0,1.,24.0,0.,24.0
1980-11-14 17:19:34.870 ,6,0,0.,24.0,0.,24.0,1.,24.0,0.,24.0
1980-11-14 17:19:58.870 ,7,1,3.,24.0,0.,24.0,0.,24.0,0.,24.0
1980-11-14 17:20:22.870 ,7,0,9.,24.0,0.,24.0,0.,24.0,0.,24.0
1980-11-14 17:20:46.870 ,7,1,8.,24.0,0.,24.0,1.,24.0,0.,24.0
1980-11-14 17:21:10.870 ,7,0,7.,24.0,0.,24.0,0.,24.0,0.,24.0
1980-11-14 17:21:34.870 ,6,1,9.,24.0,0.,24.0,1.,24.0,0.,24.0
1980-11-14 17:21:58.870 ,6,0,0.,24.0,0.,24.0,0.,24.0,0.,24.0
1980-11-14 17:22:22.870 ,5,1,0.,24.0,0.,24.0,0.,24.0,0.,24.0
1980-11-14 17:22:46.870 ,5,0,1.,24.0,0.,24.0,1.,24.0,0.,24.0
1980-11-14 17:23:10.870 ,4,1,0.,24.0,0.,24.0,2.,24.0,0.,24.0
1980-11-14 17:23:34.870 ,4,0,0.,24.0,0.,24.0,0.,24.0,0.,24.0
1980-11-14 17:23:58.870 ,3,1,0.,24.0,0.,24.0,0.,24.0,0.,24.0
1980-11-14 17:24:22.870 ,3,0,0.,24.0,0.,24.0,0.,24.0,0.,24.0
1980-11-14 17:24:46.870 ,2,1,0.,24.0,0.,24.0,1.,24.0,0.,24.0
1980-11-14 17:25:10.870 ,2,0,0.,24.0,0.,24.0,0.,24.0,0.,24.0
1980-11-14 17:25:34.870 ,1,1,0.,24.0,0.,24.0,0.,24.0,0.,24.0
1980-11-14 17:25:58.870 ,1,0,0.,24.0,0.,24.0,1.,24.0,0.,24.0
1980-11-14 17:26:22.870 ,0,1,0.,24.0,0.,24.0,1.,24.0,0.,24.0
1980-11-14 17:26:46.870 ,0,0,0.,24.0,0.,24.0,0.,24.0,0.,24.0
1980-11-14 17:27:10.870 ,0,1,0.,24.0,0.,24.0,0.,24.0,0.,24.0
1980-11-14 17:27:34.870 ,0,0,0.,24.0,0.,24.0,2.,24.0,0.,24.0
1980-11-14 17:27:58.870 ,1,1,0.,24.0,0.,24.0,0.,24.0,0.,24.0
1980-11-14 17:28:22.870 ,1,0,0.,24.0,0.,24.0,1.,24.0,0.,24.0
1980-11-14 17:28:46.870 ,2,1,0.,24.0,0.,24.0,0.,24.0,0.,24.0
1980-11-14 17:29:10.870 ,2,0,0.,24.0,0.,24.0,0.,24.0,0.,24.0
1980-11-14 17:29:34.870 ,3,1,0.,24.0,0.,24.0,1.,24.0,0.,24.0
1980-11-14 17:29:58.870 ,3,0,0.,24.0,0.,24.0,1.,24.0,0.,24.0
1980-11-14 17:30:22.870 ,4,1,0.,24.0,0.,24.0,1.,24.0,0.,24.0
1980-11-14 17:30:46.870 ,4,0,0.,24.0,0.,24.0,1.,24.0,0.,24.0
1980-11-14 17:31:10.870 ,5,1,0.,24.0,0.,24.0,0.,24.0,0.,24.0
1980-11-14 17:31:34.870 ,0,0,0.,24.0,0.,24.0,0.,24.0,0.,24.0
1980-11-14 17:31:58.870 ,6,1,0.,24.0,0.,24.0,0.,24.0,0.,24.0
1980-11-14 17:32:22.870 ,6,0,0.,24.0,0.,24.0,0.,24.0,0.,24.0
1980-11-14 17:32:46.870 ,7,1,0.,24.0,0.,24.0,0.,24.0,0.,24.0
1980-11-14 17:33:10.870 ,7,0,6.,24.0,0.,24.0,0.,24.0,0.,24.0
1980-11-14 17:33:34.870 ,7,1,12.,24.0,0.,24.0,0.,24.0,0.,24.0
1980-11-14 17:33:58.870 ,7,0,15.,24.0,0.,24.0,0.,24.0,0.,24.0
1980-11-14 17:34:22.870 ,6,1,8.,24.0,0.,24.0,1.,24.0,0.,24.0
1980-11-14 17:34:46.870 ,6,0,0.,24.0,0.,24.0,0.,24.0,0.,24.0
1980-11-14 17:35:10.870 ,5,1,0.,24.0,0.,24.0,1.,24.0,0.,24.0
1980-11-14 17:35:34.870 ,5,0,0.,24.0,0.,24.0,0.,24.0,0.,24.0
1980-11-14 17:35:58.870 ,4,1,0.,24.0,0.,24.0,1.,24.0,0.,24.0
1980-11-14 17:36:22.870 ,4,0,0.,24.0,0.,24.0,0.,24.0,0.,24.0
1980-11-14 17:36:46.870 ,3,1,0.,24.0,0.,24.0,0.,24.0,0.,24.0
1980-11-14 17:37:10.870 ,3,0,0.,24.0,0.,24.0,1.,24.0,0.,24.0
1980-11-14 17:37:34.870 ,2,1,0.,24.0,0.,24.0,2.,24.0,0.,24.0
1980-11-14 17:37:58.870 ,2,0,0.,24.0,0.,24.0,0.,24.0,0.,24.0
1980-11-14 17:38:22.870 ,1,1,0.,24.0,0.,24.0,1.,24.0,0.,24.0
1980-11-14 17:38:46.870 ,1,0,0.,24.0,0.,24.0,0.,24.0,0.,24.0
1980-11-14 17:39:10.870 ,0,1,0.,24.0,0.,24.0,1.,24.0,0.,24.0
1980-11-14 17:39:34.870 ,0,0,0.,24.0,0.,24.0,0.,24.0,0.,24.0
1980-11-14 17:39:58.870 ,0,1,0.,24.0,0.,24.0,2.,24.0,0.,24.0
1980-11-14 17:40:22.870 ,0,0,0.,24.0,1.,24.0,0.,24.0,0.,24.0
1980-11-14 17:40:46.870 ,1,1,0.,24.0,0.,24.0,2.,24.0,0.,24.0
1980-11-14 17:41:10.870 ,1,0,0.,24.0,0.,24.0,0.,24.0,0.,24.0
1980-11-14 17:41:34.870 ,2,1,0.,24.0,0.,24.0,0.,24.0,0.,24.0
1980-11-14 17:41:58.870 ,2,0,0.,24.0,0.,24.0,0.,24.0,0.,24.0
1980-11-14 17:42:22.870 ,3,1,0.,24.0,0.,24.0,0.,24.0,0.,24.0
1980-11-14 17:42:46.870 ,3,0,0.,24.0,0.,24.0,2.,24.0,0.,24.0
1980-11-14 17:43:10.870 ,4,1,0.,24.0,0.,24.0,0.,24.0,0.,24.0
1980-11-14 17:43:34.870 ,4,0,0.,24.0,0.,24.0,1.,24.0,0.,24.0
1980-11-14 17:43:58.870 ,5,1,0.,24.0,0.,24.0,0.,24.0,0.,24.0
1980-11-14 17:44:22.870 ,5,0,0.,24.0,0.,24.0,1.,24.0,0.,24.0
1980-11-14 17:44:46.870 ,6,1,0.,24.0,0.,24.0,2.,24.0,0.,24.0
1980-11-14 17:45:10.870 ,6,0,0.,24.0,0.,24.0,1.,24.0,0.,24.0
1980-11-14 17:45:34.870 ,7,1,0.,24.0,0.,24.0,0.,24.0,0.,24.0
1980-11-14 17:45:58.870 ,7,0,12.,24.0,0.,24.0,0.,24.0,0.,24.0
1980-11-14 17:46:22.870 ,7,1,11.,24.0,0.,24.0,0.,24.0,0.,24.0
1980-11-14 17:46:46.870 ,7,0,14.,24.0,0.,24.0,0.,24.0,0.,24.0
1980-11-14 17:47:10.870 ,6,1,7.,24.0,0.,24.0,1.,24.0,0.,24.0
1980-11-14 17:47:34.870 ,6,0,0.,24.0,0.,24.0,0.,24.0,0.,24.0
1980-11-14 17:47:58.870 ,5,1,0.,24.0,0.,24.0,1.,24.0,0.,24.0
1980-11-14 17:48:22.870 ,5,0,0.,24.0,0.,24.0,0.,24.0,0.,24.0
1980-11-14 17:48:46.870 ,4,1,0.,24.0,0.,24.0,0.,24.0,0.,24.0
1980-11-14 17:49:10.870 ,4,0,0.,24.0,0.,24.0,0.,24.0,0.,24.0
1980-11-14 17:49:34.870 ,3,1,0.,24.0,0.,24.0,0.,24.0,0.,24.0
1980-11-14 17:49:58.870 ,3,0,0.,24.0,0.,24.0,0.,24.0,0.,24.0
1980-11-14 17:50:22.870 ,2,1,0.,24.0,0.,24.0,0.,24.0,0.,24.0
1980-11-14 17:50:46.870 ,0,0,0.,24.0,0.,24.0,2.,24.0,0.,24.0
1980-11-14 17:52:07.270 ,0,0,0.,24.0,0.,24.0,1.,24.0,0.,24.0
1980-11-14 17:52:22.870 ,0,0,0.,24.0,0.,24.0,1.,24.0,0.,24.0
1980-11-14 17:52:46.870 ,0,1,0.,24.0,0.,24.0,0.,24.0,0.,24.0
1980-11-14 17:53:10.870 ,0,0,0.,24.0,0.,24.0,0.,24.0,0.,24.0
1980-11-14 17:53:34.870 ,1,1,0.,24.0,0.,24.0,0.,24.0,0.,24.0
1980-11-14 17:53:58.870 ,1,0,0.,24.0,0.,24.0,0.,24.0,0.,24.0
1980-11-14 17:54:22.880 ,2,1,0.,24.0,0.,24.0,1.,24.0,0.,24.0
1980-11-14 17:54:46.880 ,2,0,0.,24.0,0.,24.0,0.,24.0,0.,24.0
1980-11-14 17:55:10.880 ,3,1,0.,24.0,0.,24.0,0.,24.0,0.,24.0
1980-11-14 17:55:34.880 ,3,0,0.,24.0,0.,24.0,1.,24.0,0.,24.0
1980-11-14 17:55:58.880 ,4,1,0.,24.0,0.,24.0,0.,24.0,0.,24.0
1980-11-14 17:56:22.880 ,4,0,0.,24.0,0.,24.0,0.,24.0,0.,24.0
1980-11-14 17:56:46.880 ,5,1,0.,24.0,0.,24.0,1.,24.0,0.,24.0
1980-11-14 17:57:10.880 ,5,0,0.,24.0,0.,24.0,1.,24.0,0.,24.0
1980-11-14 17:57:34.880 ,6,1,0.,24.0,0.,24.0,0.,24.0,0.,24.0
1980-11-14 17:57:58.880 ,6,0,0.,24.0,0.,24.0,0.,24.0,0.,24.0
1980-11-14 17:58:22.880 ,7,1,4.,24.0,0.,24.0,0.,24.0,0.,24.0
1980-11-14 17:58:46.880 ,7,0,11.,24.0,0.,24.0,0.,24.0,0.,24.0
1980-11-14 17:59:10.880 ,7,1,13.,24.0,0.,24.0,0.,24.0,0.,24.0
1980-11-14 17:59:34.880 ,7,0,9.,24.0,0.,24.0,0.,24.0,0.,24.0
1980-11-14 17:59:58.880 ,6,1,7.,24.0,0.,24.0,0.,24.0,0.,24.0
